Content
SEND FEEDBACK

Daily
Averages
Monthly
Summary
United States of America

MOUNT SHASTA, CALIFORNIA


Home > North America > United States > California
Elevation: 3679 feet     Latitude: 41 19N     Longitude: 122 19W

WEATHER
 
SELECT A DAY
Number of Records: 234,062;   Date Range: 1/1/95 - 10/20/14
 
SHARE

PRINT THIS DATA

[ ← Previous Day ]
WEATHER ALMANAC - NOVEMBER 12, 2013
[ Next Day → ]
[ °C ]   °F
Weather ElementAverageHighLow
Temperature56.2 °F63 °F (11:56 am)45 °F (11:56 pm)
Dewpoint30.6 °F41 °F (10:56 pm)24.1 °F (1:56 am)
Humidity39.5 %68 % (10:56 pm)25 % (10:56 am)
Barometer30.32 in30.38 in (8:56 pm)30.23 in (1:56 am)
Wind Speed1.1 mph4.6 mph (3:56 am)
Weather ElementAverage
Visibility10 mi
Wind DirectionNNE (39.1 °)

Weather ElementTotal
Precipitation---
Heating Degree Days11 (Base 65)
Growing Degree Days4 (Base 50)
Averaged from 23 records on November 12, 2013
WEATHER CONDITIONS BREAKOUT
WIND DIRECTION BREAKOUT
WEATHER BY HOUR - NOVEMBER 12, 2013
[ °C ]   °F
Local TimeTemperatureDewpointHumidityBarometerVisibilityWind DirectionWind SpeedGust SpeedPrecipitationEventsConditions
1:56 AM53.1 °F24.1 °F32 %30.23 in10.0 miCalmOvercast
2:56 AM55.0 °F24.1 °F30 %30.26 in10.0 miESE (120°)3.5 mphOvercast
3:56 AM55.9 °F24.1 °F29 %30.28 in10.0 miSE (130°)4.6 mphMostly Cloudy
4:56 AM55.9 °F25.0 °F30 %30.28 in10.0 miCalmMostly Cloudy
5:56 AM53.1 °F26.1 °F35 %30.27 in10.0 miSSW (210°)3.5 mphScattered Clouds
6:56 AM51.1 °F25.0 °F36 %30.31 in10.0 miCalmClear
7:56 AM50.0 °F27.0 °F41 %30.33 in10.0 miCalmScattered Clouds
8:56 AM51.1 °F28.9 °F43 %30.35 in10.0 miCalmClear
9:56 AM60.1 °F28.9 °F31 %30.34 in10.0 miEast (100°)3.5 mphClear
10:56 AM62.1 °F26.1 °F25 %30.34 in10.0 miVariable3.5 mphMostly Cloudy
11:56 AM63.0 °F27.0 °F26 %30.31 in10.0 miCalmMostly Cloudy
12:56 PM63.0 °F28.0 °F27 %30.31 in10.0 miCalmOvercast
1:56 PM63.0 °F27.0 °F26 %30.30 in10.0 miCalmOvercast
2:56 PM63.0 °F30.0 °F29 %30.30 in10.0 miCalmOvercast
3:56 PM61.0 °F32.0 °F34 %30.31 in10.0 miCalm0.00 inMostly Cloudy
4:56 PM57.9 °F35.1 °F42 %30.32 in10.0 miCalmOvercast
5:56 PM55.9 °F36.0 °F47 %30.34 in10.0 miCalmOvercast
6:56 PM57.0 °F36.0 °F45 %30.36 in10.0 miWNW (300°)3.5 mphOvercast
7:56 PM55.9 °F39.0 °F53 %30.36 in10.0 miCalmOvercast
8:56 PM55.9 °F39.9 °F55 %30.38 in10.0 miCalmOvercast
9:56 PM54.0 °F39.9 °F59 %30.37 in10.0 miCalmOvercast
10:56 PM51.1 °F41.0 °F68 %30.37 in10.0 miCalmScattered Clouds
11:56 PM45.0 °F34.0 °F65 %30.38 in10.0 miNE (40°)3.5 mphClear
Hourly data recorded from KMHS, located miles away from Mount Shasta, California







STORIES FROM OUR PARTNERS